sat.trackr.live / text

‹ back to catalog

STARLINK-34742

NORAD 64942 · 2025-158L

PAYLOAD ACTIVE UNKNOWN

§ Identity

Operator
Country
US
Launch date
2025-07-27
Launch site
AFWTR
Launch vehicle
Mass (kg)
RCS (m²)

Purposes: comms

External: N2YO · Heavens-Above · Gunter

§ Orbital elements

Epoch: 2026-05-25T03:29:06.968256Z

Period
95.64 min
Inclination
97.4495°
Eccentricity
0.0002592
Mean motion
15.05656847 rev/d
Perigee alt
547.7 km
Apogee alt
551.3 km
Semi-major
6,927.6 km
B*
1.6105e-4
RAAN
9.1146°
Arg perigee
88.9531°
Mean anomaly
271.1994°
Rev number
4,686

§ Raw data

STARLINK-347421 64942U 25158L   26145.14521954  .00002266  00000+0  16105-3 0  99962 64942  97.4495   9.1146 0002592  88.9531 271.1994 15.05656847 46862

JSON: /api/v1/satellites/64942 · /tle

For live sub-satellite position, see the globe view (requires WebGL).

§ Visibility from observer

Set your observer location to see the next 7 days of passes ≥ 10°. The values pass through the URL so the page stays shareable.

No JS? Fill the form by hand. The geolocation button needs JavaScript.